Location: ??????
(55.2000°N, 38.3000°E)
Time: 00:48:08
(UTC+00:00)

Cosmos 1420 Rocket - Pass Details

Date: 15 November 2025
Orbit: 750 x 776 km, 74.0° (Epoch: 12 December)

Event Time Altitude Azimuth Distance (km) Brightness Sun altitude
Exits shadow 02:57:45 15° 229° (SW) 2,019 5.8 -17.0°
Maximum altitude 03:02:07 55° 304° (NW) 934 4.1 -16.4°
Drops below altitude 10° 03:07:21 10° 23° (NNE) 2,340 6.7 -15.7°
Sets 03:09:48 0° 28° (NNE) 3,272 7.5 -15.3°
